This is the latest recevied weather packets stored in our database for station/object KI6AOK. If no packets are shown the sender has not sent any weather packets the latest 10 day(s).
| Time | Temp. | Humidity | Pressure | Rain* | Wind** | Luminosity | Snow |
|---|---|---|---|---|---|---|---|
| 1777483646 | 22.22° C | 41% | 1016.5 hPa | 0 mm | - | 736 W/m² | - |
| 1777483342 | 22.22° C | 41% | 1016.4 hPa | 0 mm | - | 725 W/m² | - |
| 1777483037 | 21.67° C | 42% | 1016.5 hPa | 0 mm | - | 714 W/m² | - |
| 1777482735 | 21.67° C | 43% | 1016.7 hPa | 0 mm | - | 702 W/m² | - |
| 1777482430 | 22.22° C | 42% | 1016.6 hPa | 0 mm | - | 690 W/m² | - |
| 1777482128 | 21.67° C | 43% | 1016.9 hPa | 0 mm | - | 676 W/m² | - |
| 1777481826 | 21.11° C | 44% | 1017 hPa | 0 mm | - | 664 W/m² | - |
| 1777481523 | 21.11° C | 46% | 1016.9 hPa | 0 mm | - | 651 W/m² | - |
| 1777481219 | 20° C | 47% | 1017.1 hPa | 0 mm | - | 638 W/m² | - |
| 1777480916 | 20° C | 48% | 1017 hPa | 0 mm | - | 627 W/m² | - |
| 1777480612 | 20° C | 48% | 1017 hPa | 0 mm | - | 612 W/m² | - |
| 1777480309 | 19.44° C | 51% | 1016.9 hPa | 0 mm | - | 597 W/m² | - |
| 1777480005 | 19.44° C | 51% | 1016.9 hPa | 0 mm | - | 582 W/m² | - |
| 1777479702 | 19.44° C | 51% | 1017 hPa | 0 mm | - | 568 W/m² | - |
| 1777479400 | 18.89° C | 53% | 1017.1 hPa | 0 mm | - | 551 W/m² | - |
| 1777479096 | 18.33° C | 54% | 1017 hPa | 0 mm | - | 531 W/m² | - |
| 1777478793 | 18.33° C | 55% | 1017.1 hPa | 0 mm | - | 520 W/m² | - |
| 1777478490 | 18.33° C | 57% | 1017 hPa | 0 mm | - | 503 W/m² | - |
| 1777478187 | 17.78° C | 57% | 1016.8 hPa | 0 mm | - | 485 W/m² | - |
| 1777477883 | 17.78° C | 57% | 1016.8 hPa | 0 mm | - | 468 W/m² | - |
| 1777477578 | 17.22° C | 61% | 1017 hPa | 0 mm | - | 449 W/m² | - |
| 1777477275 | 16.67° C | 62% | 1017.1 hPa | 0 mm | - | 430 W/m² | - |
| 1777476971 | 16.67° C | 63% | 1017.1 hPa | 0 mm | - | 410 W/m² | - |
| 1777476669 | 16.11° C | 65% | 1016.9 hPa | 0 mm | - | 394 W/m² | - |
| 1777476366 | 15.56° C | 67% | 1017.1 hPa | 0 mm | - | 375 W/m² | - |
* Rain latest hour (hover to see other rain measurements)
** Current wind speed in m/s (hover to see current wind gust speed)